This is the latest recevied weather packets stored in our database for station/object NW6UP. If no packets are shown the sender has not sent any weather packets the latest 10 day(s).
| Time | Temp. | Humidity | Pressure | Rain* | Wind** | Luminosity | Snow |
|---|---|---|---|---|---|---|---|
| 1777175034 | 13.33° C | 65% | 1009.8 hPa | 0 mm | - | - | - |
| 1777174792 | -17.78° C | 100% | 0 hPa | 0 mm | - | - | - |
| 1777174673 | -17.78° C | 100% | 0 hPa | 0 mm | - | - | - |
| 1777173714 | -17.78° C | 100% | 0 hPa | 0 mm | - | - | - |
| 1777123889 | 11.67° C | 69% | 0 hPa | 0 mm | - | - | - |
| 1777122688 | 11.67° C | 68% | 0 hPa | 0 mm | - | - | - |
| 1777121488 | 12.22° C | 67% | 0 hPa | 0 mm | - | - | - |
| 1777120289 | 12.22° C | 66% | 0 hPa | 0 mm | - | - | - |
| 1777119091 | 12.22° C | 65% | 1010.6 hPa | 0 mm | - | - | - |
| 1777117889 | 12.22° C | 65% | 1010.5 hPa | 0 mm | - | - | - |
| 1777116689 | 12.22° C | 66% | 0 hPa | 0 mm | - | - | - |
| 1777115490 | 12.22° C | 66% | 1010.5 hPa | 0 mm | - | - | - |
| 1777114290 | 12.22° C | 67% | 1010.5 hPa | 0 mm | - | - | - |
| 1777111889 | 12.78° C | 66% | 1011.1 hPa | 0 mm | - | - | - |
| 1777110689 | 12.78° C | 66% | 0 hPa | 0 mm | - | - | - |
| 1777109489 | 12.78° C | 65% | 0 hPa | 0 mm | - | - | - |
| 1777108289 | 12.78° C | 66% | 1011.3 hPa | 0 mm | - | - | - |
| 1777107090 | 12.78° C | 65% | 0 hPa | 0 mm | - | - | - |
| 1777105888 | 12.78° C | 65% | 0 hPa | 0 mm | - | - | - |
| 1777104689 | 12.78° C | 67% | 0 hPa | 0 mm | - | - | - |
| 1777103488 | 12.78° C | 69% | 1011.7 hPa | 0 mm | - | - | - |
| 1777102288 | 12.78° C | 70% | 1011.8 hPa | 0 mm | - | - | - |
| 1777101088 | 12.78° C | 71% | 0 hPa | 0 mm | - | - | - |
| 1777099889 | 12.78° C | 72% | 1011.9 hPa | 0 mm | - | - | - |
| 1777098688 | 12.78° C | 73% | 1012 hPa | 0 mm | - | - | - |
* Rain latest hour (hover to see other rain measurements)
** Current wind speed in m/s (hover to see current wind gust speed)